Preview of NWS' New Version of Forecast
This preview is not operational and should not be used for support decisions.

Regional Weather Roundup (RWR)

Issued by Gray - Portland, ME (GYX)

                            
000
ASUS41 KGYX 241605
RWRGYX
WEATHER ROUNDUP FOR MAINE AND NEW HAMPSHIRE
NATIONAL WEATHER SERVICE GRAY ME
1200 PM EDT MON JUN 24 2019

MEZ002-005-006-010-012-015-018-020-021-024-026-027-029-241700-
MAINE
  
CITY           SKY/WX    TMP DP  RH WIND       PRES   REMARKS
PORTLAND       FAIR      75  47  36 E7        29.83F                  
SANFORD        FAIR      79  46  31 W10       29.83F                  
BAR HARBOR     FAIR      68  45  43 N14       29.83F                  
WISCASSET      FAIR      74  43  32 NW6       29.84F                  
ROCKLAND       FAIR      68  44  42 E7        29.84S                  
FRYEBURG       FAIR      77  42  28 VRB6      29.84F                  
LEWISTONAUBURN FAIR      73  40  30 CALM      29.84F                  
AUGUSTA        FAIR      73  43  33 N9        29.85F                  
WATERVILLE     FAIR      71  40  32 NW9G17    29.82F                  
BANGOR         FAIR      71  46  40 N7        29.84S                  
GREENVILLE       N/A     64  40  41 N10       29.84S                  
MILLINOCKET    FAIR      68  37  32 VRB7      29.84S                  
HOULTON        FAIR      66  40  38 NW14      29.79F                  
PRESQUE ISLE   FAIR      65  41  41 NW12      29.81F                  
FRENCHVILLE    FAIR      65  38  36 NW17G25   29.81S                  
CARIBOU        FAIR      66  38  35 NW14G20   29.79F                  
$$

NHZ002-005-008-009-011-012-014-241700-
NEW HAMPSHIRE
  
CITY           SKY/WX    TMP DP  RH WIND       PRES   REMARKS
PORTSMOUTH     MOSUNNY   78  51  38 SE7       29.82F                  
ROCHESTER      FAIR      79  45  29 NW18      29.83F                  
NASHUA         FAIR      81  50  33 NW9G18    29.84F                  
MANCHESTER     PTSUNNY   82  43  25 NW8       29.83S                  
CONCORD        FAIR      80  45  28 NW12G21   29.84F                  
LACONIA        FAIR      76  45  33 N6        29.85F                  
PLYMOUTH       FAIR      75  42  29 W14       29.86S                  
BERLIN         FAIR      75  39  27 N8        29.86F                  
WHITEFIELD     FAIR      73  40  30 W8        29.87F                  
JAFFREY        FAIR      79  46  31 NW7       29.88S                  
KEENE          FAIR      79  52  38 VRB6      29.85F                  
LEBANON        FAIR      81  50  33 VRB7G17   29.85F                  
MT WASHINGTON  MOSUNNY   46  34  61 NW26G40     N/A                   
$$

VTZ005-007-008-241700-
VERMONT
  
CITY           SKY/WX    TMP DP  RH WIND       PRES   REMARKS
ST JOHNSBURY     N/A     74  40  29 MISG      29.85F                  
MONTPELIER     FAIR      73  46  38 NW9       29.92F                  
BURLINGTON     PTSUNNY   77  47  34 NW6       29.87F                  
$$

MAZ007-012-024-CTZ003-RIZ002-NYZ038-NYZ072-241700-
SOUTHERN NEW ENGLAND AND NY
  
CITY           SKY/WX    TMP DP  RH WIND       PRES   REMARKS
BOSTON         FAIR      76  55  48 E13       29.84S                  
WORCESTER      FAIR      77  53  43 W12       29.88S                  
NANTUCKET      FAIR      77  56  48 N9        29.85S                  
PROVIDENCE     PTSUNNY   83  52  34 NW14      29.84F                  
HARTFORD       PTSUNNY   83  52  34 VRB3      29.85F                  
ALBANY         FAIR      79  54  41 VRB7      29.87F                  
NEW YORK CITY  PTSUNNY   83  49  30 W7        29.87F                  
$$

ANZ081-ANZ082-ANZ150-NHZ014-MEZ023>029-241700-
COASTAL MARINE OBSERVATIONS
  
STATION/POSITION TIME  TEMP    WIND        PRES    WAVE
                       AIR SEA DIR/SP/G            HT/PER
                 (UTC) (F)     (DEG/KT/KT) (MB)    (FT/S)
ISLE OF SHOALS   1500   63     120/  7/  7 1010.3R
JEFFREYS LEDGE   1538      60                N/A     1/11
CASHES LEDGE BUO 1450   55 54   30/  6/  6 1011.2    1/ 8
GEORGES BANK BUO 1500   54     310/  4/  4 1009.9
$$

.............KEY..............
   WCI - WIND CHILL
   TC  - TEMPERATURE IN CELSIUS
   VSB - VISIBILITY IN MILES
   HX  - HEAT INDEX
   FAIR- INDICATES FEW OR NO CLOUDS BELOW 12,000 FT, WITH NO 
         SIGNIFICANT WEATHER AND/OR OBSTRUCTIONS TO VISIBILITY.